CW7992 Weather Reports


Display with metric or nautical units.
time (UTC)temp
F
wind
direction
speed
MPH
gust
MPH
rain 1hr
in
rain 24hr
in
rain mn
in
humidity
%
barometer
mb
20260507083111 56 58 1.0 2.0 0.00 0.00 0.00 63 16.4
20260507082111 56 56 0.0 5.0 0.00 0.00 0.00 63 16.3
20260507081111 55 92 1.0 5.0 0.00 0.00 0.00 64 16.2
20260507075111 53 202 0.0 0.0 0.00 0.00 0.00 69 16.2
20260507074111 53 169 0.0 0.0 0.00 0.00 0.00 73 16.1
20260507073111 52 189 0.0 0.0 0.00 0.00 0.00 75 16.0
20260507072111 51 41 0.0 2.0 0.00 0.00 0.00 78 16.1
20260507071111 50 224 0.0 4.0 0.00 0.00 0.00 84 16.0
20260507070111 50 54 0.0 2.0 0.00 0.00 0.00 85 16.1
20260507065111 48 37 2.0 2.0 0.00 0.00 0.00 89 16.0
20260507064111 48 46 1.0 2.0 0.00 0.00 0.00 91 15.9
20260507063111 47 37 0.0 0.0 0.00 0.00 0.00 92 15.9
20260507062111 46 30 0.0 2.0 0.00 0.00 0.00 93 15.8
20260507061111 45 32 0.0 4.0 0.00 0.00 0.00 93 15.7
20260507060111 44 40 2.0 5.0 0.00 0.00 0.00 93 15.6
20260507055111 43 46 2.0 4.0 0.00 0.00 0.00 94 15.6
20260507054111 42 42 2.0 4.0 0.00 0.00 0.00 94 15.6
20260507053111 42 31 2.0 4.0 0.00 0.00 0.00 94 15.5
20260507052111 41 38 2.0 4.0 0.00 0.00 0.00 94 15.5
20260507051111 40 28 0.0 1.0 0.00 0.00 0.00 93 15.4
20260507050111 38 28 0.0 0.0 0.00 0.00 0.00 93 15.3
20260507045111 37 28 0.0 0.0 0.00 0.00 0.00 93 15.2
20260507044111 37 28 0.0 0.0 0.00 0.00 0.00 93 15.1
20260507043111 37 28 0.0 0.0 0.00 0.00 0.00 93 14.9
20260507035111 36 30 0.0 0.0 0.00 0.00 0.00 92 14.6
20260507034111 37 30 0.0 0.0 0.00 0.00 0.00 92 14.5
20260507033111 37 30 0.0 0.0 0.00 0.00 0.00 92 14.4
20260507032111 37 30 0.0 0.0 0.00 0.00 0.00 92 14.4
20260507030111 37 30 0.0 1.0 0.00 0.00 0.00 92 14.3
20260507025111 37 30 0.0 0.0 0.00 0.00 0.00 92 14.2
20260507022111 39 30 0.0 2.0 0.00 0.00 0.00 92 14.0
20260507021111 39 15 0.0 2.0 0.00 0.00 0.00 92 14.0
20260507020111 38 52 0.0 0.0 0.00 0.00 0.00 91 13.8
20260507015111 38 52 0.0 0.0 0.00 0.00 0.00 91 13.7
20260507013111 39 52 0.0 0.0 0.00 0.00 0.00 91 13.5
20260507012111 39 52 0.0 0.0 0.00 0.00 0.00 91 13.4
20260507011111 40 52 0.0 0.0 0.00 0.00 0.00 91 13.4
20260507010111 40 52 0.0 0.0 0.00 0.00 0.00 91 13.4
20260507005111 40 52 0.0 0.0 0.00 0.00 0.00 91 13.3
20260507004111 40 52 0.0 0.0 0.00 0.00 0.00 91 13.3
20260507003111 40 52 0.0 0.0 0.00 0.00 0.00 90 13.3
20260507001111 41 52 0.0 0.0 0.00 0.00 0.00 90 13.3
20260507000111 41 52 0.0 0.0 0.00 0.00 0.00 90 13.3
20260506235111 42 52 0.0 0.0 0.00 0.00 0.00 90 13.3
20260506234111 42 52 0.0 0.0 0.00 0.00 0.00 89 13.3
20260506233111 42 52 0.0 0.0 0.00 0.00 0.00 89 13.3
20260506232111 42 52 0.0 0.0 0.00 0.00 0.00 89 13.2
20260506231111 42 52 0.0 0.0 0.00 0.00 0.00 89 13.2
20260506230111 42 52 0.0 0.0 0.00 0.00 0.00 88 13.2
20260506225111 42 52 0.0 0.0 0.00 0.00 0.00 88 13.1
20260506224111 42 52 0.0 1.0 0.00 0.00 0.00 88 13.0
20260506223111 43 52 0.0 1.0 0.00 0.00 0.00 88 13.0
20260506222111 42 53 0.0 0.0 0.00 0.00 0.00 87 13.0
20260506220111 43 53 0.0 0.0 0.00 0.00 0.00 86 12.9
20260506215111 43 53 0.0 0.0 0.00 0.00 0.00 86 12.8
20260506214111 43 53 0.0 0.0 0.00 0.00 0.00 85 12.6
20260506211111 45 53 0.0 0.0 0.00 0.00 0.00 82 12.4
20260506210111 45 53 0.0 0.0 0.00 0.00 0.00 81 12.3
20260506205111 45 53 0.0 0.0 0.00 0.00 0.00 80 12.3
20260506204111 46 53 0.0 0.0 0.00 0.00 0.00 79 12.2
20260506203111 47 53 0.0 0.0 0.00 0.00 0.00 78 12.1
20260506202111 47 53 0.0 1.0 0.00 0.00 0.00 76 12.0
20260506201111 48 59 0.0 1.0 0.00 0.00 0.00 76 12.0
20260506200111 48 59 0.0 0.0 0.00 0.00 0.00 75 12.0
20260506195111 49 59 0.0 2.0 0.00 0.00 0.00 74 11.9
20260506194111 49 59 1.0 1.0 0.00 0.00 0.00 74 11.8
20260506191111 51 59 0.0 0.0 0.00 0.00 0.00 73 11.4
20260506190111 51 59 0.0 0.0 0.00 0.00 0.00 72 11.3
20260506185111 52 59 0.0 0.0 0.00 0.00 0.00 70 11.3
20260506183111 53 78 1.0 2.0 0.00 0.00 0.00 65 11.0
20260506182111 54 35 2.0 2.0 0.00 0.00 0.00 63 10.9
20260506180111 54 30 2.0 6.0 0.00 0.00 0.00 63 10.7
20260506175111 54 5 1.0 2.0 0.00 0.00 0.00 62 10.7
20260506174111 55 27 3.0 6.0 0.00 0.00 0.00 57 10.6
20260506172111 55 37 3.0 5.0 0.00 0.00 0.00 57 10.5
20260506171111 55 53 2.0 6.0 0.00 0.00 0.00 56 10.4
20260506170111 56 37 2.0 2.0 0.00 0.00 0.00 56 10.4
20260506164111 56 53 3.0 5.0 0.00 0.00 0.00 53 10.3
20260506161111 58 42 2.0 7.0 0.00 0.00 0.00 53 10.3
20260506160111 58 55 2.0 5.0 0.00 0.00 0.00 51 10.3
20260506155112 58 49 2.0 7.0 0.00 0.00 0.00 52 10.3
20260506154111 59 55 5.0 15.0 0.00 0.00 0.00 49 10.3
20260506153111 59 65 3.0 7.0 0.00 0.00 0.00 52 10.3
20260506152111 60 56 4.0 10.0 0.00 0.00 0.00 53 10.2
20260506151111 59 58 5.0 10.0 0.00 0.00 0.00 52 10.2
20260506145111 60 26 5.0 8.0 0.00 0.00 0.00 54 10.2
20260506144111 61 34 4.0 8.0 0.00 0.00 0.00 52 10.1
20260506143111 60 9 5.0 8.0 0.00 0.00 0.00 51 10.1
20260506142111 60 5 7.0 11.0 0.00 0.00 0.00 52 10.2
20260506141111 60 21 4.0 7.0 0.00 0.00 0.00 56 10.2
20260506140111 61 56 5.0 8.0 0.00 0.00 0.00 56 10.3
20260506135111 60 57 8.0 14.0 0.00 0.00 0.00 53 10.3
20260506134111 60 61 3.0 10.0 0.00 0.00 0.00 56 10.4
20260506133111 60 46 5.0 8.0 0.00 0.00 0.00 56 10.4
20260506132111 60 360 6.0 10.0 0.00 0.00 0.00 55 10.4
20260506131111 59 53 6.0 13.0 0.00 0.00 0.00 56 10.4
20260506130111 60 44 8.0 15.0 0.00 0.00 0.00 55 10.4
20260506125111 61 46 5.0 8.0 0.00 0.00 0.00 55 10.4
20260506124111 62 57 8.0 12.0 0.00 0.00 0.00 54 10.3
20260506123111 60 21 5.0 10.0 0.00 0.00 0.00 56 10.4
20260506122111 59 53 8.0 14.0 0.00 0.00 0.00 57 10.4
20260506121111 60 5 5.0 11.0 0.00 0.00 0.00 59 10.4
20260506120111 59 59 5.0 12.0 0.00 0.00 0.00 57 10.4
20260506115111 61 78 5.0 10.0 0.00 0.00 0.00 56 10.3
20260506114111 60 59 8.0 12.0 0.00 0.00 0.00 58 10.5
20260506111111 59 51 1.0 13.0 0.00 0.00 0.00 60 10.6
20260506110111 59 58 5.0 11.0 0.00 0.00 0.00 56 10.7
20260506105111 60 30 7.0 12.0 0.00 0.00 0.00 58 10.6
20260506104111 59 69 5.0 11.0 0.00 0.00 0.00 63 10.7
20260506103111 59 29 8.0 11.0 0.00 0.00 0.00 60 10.8
20260506102111 60 53 5.0 12.0 0.00 0.00 0.00 62 10.9
20260506101111 59 304 6.0 11.0 0.00 0.00 0.00 58 10.9
20260506100111 58 56 7.0 13.0 0.00 0.00 0.00 59 10.9
20260506095111 58 36 4.0 8.0 0.00 0.00 0.00 62 11.0
20260506094111 57 355 5.0 8.0 0.00 0.00 0.00 59 11.0
20260506093111 58 61 4.0 7.0 0.00 0.00 0.00 57 11.0
20260506091111 59 295 4.0 13.0 0.00 0.00 0.00 61 11.0
20260506090111 59 38 9.0 13.0 0.00 0.00 0.00 60 11.1
20260506085111 58 27 4.0 12.0 0.00 0.00 0.00 58 11.0
20260506084111 58 71 5.0 13.0 0.00 0.00 0.00 61 11.0